C/2018 M1 ( Catalina )

Japanese version
Home page
Updated on July 2, 2018

---------------------------------------------------------------------

* Profile

Discovery Date June 25, 2018
Magnitude 17.6 mag
Discoverer H. Groeller and R. A. Kowalski (Catalina Sky Survey)

* Orbital Elements

T 2018 July  9.96303 TT                                 MPCW
q   1.3153314            (2000.0)            P               Q
                   Peri.   14.10094     +0.97761213     +0.03454061
                   Node   340.00787     -0.19614395     +0.50668938
e   1.0            Incl.   37.37983     +0.07617130     +0.86143649
From 29 observations 2018 June 25-July 1.

* Magnitudes Graph

        m1 = 15.5 + 5 log d + 10.0 log r

---------------------------------------------------------------------

The orbital elements are published on M.P.E.C. 2018-N05.
The magnitudes graphs are made with Comet for Windows.

---------------------------------------------------------------------

Copyright(C) Seiichi Yoshida (comet@aerith.net). All rights reserved.